Weather History for KGNA - May, 2013

Change the Weather History Date:

Thursday, May 9, 2013

  Actual Average (KCKC) Record (KCKC)
Temperature  
Mean Temperature 42 °F -  
Max Temperature 53 °F 54 °F 77 °F (2007)
Min Temperature 32 °F 34 °F 28 °F (1999)
Degree Days  
Heating Degree Days 23    
Moisture  
Dew Point 34 °F    
Average Humidity 72    
Maximum Humidity 89    
Minimum Humidity 62    
Precipitation  
Precipitation 0.00 in - - ()
Sea Level Pressure  
Sea Level Pressure 30.19 in    
Wind  
Wind Speed 5 mph (NE)    
Max Wind Speed 9 mph    
Max Gust Speed -    
Averages and records for this station are not official NWS values.
T = Trace of Precipitation, MM = Missing Value Source: NWS Daily Summary

Daily Weather History Graph

Daily Weather History Graph

Search for Another Location

Airport or City:

Trip Planner

Search our weather history database for the weather conditions in past years. The results will help you decide how hot, cold, wet, or windy it might be!

Date:

Astronomy

May. 09, 2013 Rise Set
Actual Time 5:31 AM CDT 8:25 PM CDT
Civil Twilight 4:55 AM CDT 9:01 PM CDT
Nautical Twilight 4:09 AM CDT 9:47 PM CDT
Astronomical Twilight 3:14 AM CDT 10:43 PM CDT
Moon 5:18 AM CDT (5/9) 8:20 PM CDT (5/9)
Length of Visible Light 16h 05m
Length of Day
14h 54m
Waning Crescent, 0% of the Moon is Illuminated
May 9
Waning Crescent
May 9
New
May 17
First Quarter
May 24
Full
May 31
Last Quarter

Hourly Weather History & Observations

Time (CDT) Temp. Windchill Dew Point Humidity Pressure Visibility Wind Dir Wind Speed Gust Speed Precip Events Conditions
12:56 AM 43.0 °F 40.3 °F 39.9 °F 89% 30.08 in - NE 4.6 mph - N/A   Unknown
1:56 AM 52.0 °F - 43.0 °F 71% 30.07 in - NNE 5.8 mph - N/A   Unknown
2:56 AM 43.0 °F 40.3 °F 37.0 °F 80% 30.08 in - Variable 4.6 mph - N/A   Unknown
3:56 AM 48.0 °F - 39.0 °F 71% 30.09 in - North 9.2 mph - N/A   Unknown
4:56 AM 46.9 °F - 37.0 °F 68% 30.10 in - East 5.8 mph - N/A   Unknown
5:56 AM 44.1 °F - 37.0 °F 76% 30.14 in - Calm Calm - N/A   Unknown
6:56 AM 46.0 °F 44.8 °F 36.0 °F 68% 30.16 in - ENE 3.5 mph - N/A   Unknown
7:56 AM 46.9 °F - 36.0 °F 66% 30.17 in - NNE 5.8 mph - N/A   Unknown
8:56 AM 46.0 °F 41.9 °F 36.0 °F 68% 30.19 in - NE 8.1 mph - N/A   Unknown
9:56 AM 44.1 °F 40.8 °F 35.1 °F 71% 30.20 in - ENE 5.8 mph - N/A   Unknown
10:56 AM 42.1 °F 37.1 °F 34.0 °F 73% 30.22 in - East 8.1 mph - N/A   Unknown
12:56 PM 42.1 °F 38.4 °F 32.0 °F 67% 30.24 in - ENE 5.8 mph - N/A   Unknown
1:56 PM 43.0 °F 38.8 °F 32.0 °F 65% 30.23 in - ENE 6.9 mph - N/A   Unknown
2:56 PM 41.0 °F 35.8 °F 32.0 °F 70% 30.24 in - ENE 8.1 mph - N/A   Unknown
3:56 PM 43.0 °F 38.2 °F 32.0 °F 65% 30.23 in - ENE 8.1 mph - N/A   Unknown
4:56 PM 42.1 °F - 32.0 °F 67% 30.24 in - Calm Calm - N/A   Unknown
5:56 PM 43.0 °F - 30.9 °F 62% 30.23 in - Calm Calm - N/A   Unknown
6:56 PM 41.0 °F - 30.9 °F 67% 30.24 in - Calm Calm - N/A   Unknown
7:56 PM 41.0 °F - 30.9 °F 67% 30.25 in - Calm Calm - N/A   Unknown
8:56 PM 37.0 °F - 30.0 °F 76% 30.26 in - Calm Calm - N/A   Unknown
9:56 PM 33.1 °F - 27.0 °F 78% 30.27 in - Calm Calm - N/A   Unknown
10:56 PM 32.0 °F - 27.0 °F 82% 30.27 in - Calm Calm - N/A   Unknown
11:56 PM 32.0 °F - 27.0 °F 82% 30.27 in - Calm Calm - N/A   Unknown